This demonstration page uses our WeatherBlox Daily Observations layout. Learn more.

Left ArrowRight Arrow

41.55636, -103.73856

Hourly Observations for December 26, 2021

Temp ( °F °C ) Dew Point ( °F °C ) Humidity (%) Winds ( mph kmh ) Pressure ( in mb ) Visibility ( mi km ) Precip ( " mm )
12:58 am 00:58 Mostly Clear 32 0.1 21 -6.1 63 63 SSE 21 33 29.70 1006 10 16 0.00 0.00
1:58 am 01:58 Clear 27 -2.6 20 -6.9 73 73 S 9 15 29.70 1006 10 16 0.00 0.00
2:58 am 02:58 Clear 30 -1.3 20 -6.9 66 66 SSE 8 13 29.67 1005 10 16 0.00 0.00
3:58 am 03:58 Clear 26 -3.3 18 -7.7 72 72 SSW 6 9 29.64 1004 10 16 0.00 0.00
4:58 am 04:58 Clear 19 -7.3 15 -9.6 84 84 S 6 9 29.65 1004 10 16 0.00 0.00
5:58 am 05:58 Partly Cloudy 24 -4.3 14 -10 65 65 Calm 29.60 1002 10 16 0.00 0.00
6:58 am 06:58 Mostly Cloudy 20 -6.5 15 -9.7 78 78 WNW 5 7 29.61 1003 10 16 0.00 0.00
7:58 am 07:58 Mostly Sunny 19 -7.1 15 -9.4 84 84 Calm 29.59 1002 10 16 0.00 0.00
8:58 am 08:58 Mostly Cloudy 26 -3.3 21 -6.3 80 80 WSW 7 11 29.57 1001 10 16 0.00 0.00
9:58 am 09:58 Partly Cloudy 31 -0.3 19 -7 61 61 WNW 5 7 29.51 999 10 16 0.00 0.00
10:58 am 10:58 Sunny 40 4.4 22 -5.8 48 48 NNW 8 13 29.48 998 10 16 0.00 0.00
11:58 am 11:58 Sunny 45 7.4 22 -5.6 40 40 NE 3 6 29.39 995 10 16 0.00 0.00
12:58 pm 12:58 Mostly Sunny 51 10.7 17 -8.2 26 26 W 10 17 29.34 994 10 16 0.00 0.00
1:58 pm 13:58 Sunny 52 10.9 12 -11.3 20 20 W 22 35 29.36 994 10 16 0.00 0.00
2:58 pm 14:58 Mostly Sunny 43 6 23 -5 46 46 W 33 54 29.44 997 10 16 0.00 0.00
3:58 pm 15:58 Partly Cloudy with Light Rain/Snow 37 2.6 19 -7.1 49 49 W 28 44 29.54 1001 10 16 0.00 0.00
4:58 pm 16:58 Mostly Clear 36 2.3 9 -12.9 32 32 W 30 48 29.61 1003 10 16 0.00 0.00
5:58 pm 17:58 Clear 34 1.1 10 -12.3 36 36 W 25 41 29.65 1004 10 16 0.00 0.00
6:58 pm 18:58 Clear 31 -0.3 11 -11.4 43 43 W 18 30 29.75 1007 10 16 0.00 0.00
7:58 pm 19:58 Clear 30 -1.3 11 -11.4 47 47 W 22 35 29.80 1009 10 16 0.00 0.00
8:58 pm 20:58 Clear 29 -1.5 2 -16.6 31 31 WNW 29 46 29.81 1009 10 16 0.00 0.00
9:58 pm 21:58 Clear 29 -1.8 1 -17.3 30 30 WNW 30 48 29.80 1009 10 16 0.00 0.00
10:58 pm 22:58 Clear 26 -3.4 1 -17 34 34 WNW 18 30 29.83 1010 10 16 0.00 0.00
11:58 pm 23:58 Clear 26 -3.5 1 -17 35 35 WNW 25 41 29.83 1010 10 16 0.00 0.00

Powered by AerisWeather